,,,PA_Meas_PMT16A,,PR_Meas_QMR101_102,,RH_Meas_QMH101,,SR_Meas_QMS101,,TA_Meas_QMH101,,GenWind,,GenWind,
date,time,status,PA,status,PR,status,RH,status,SR,status,TA,status,DirAvg,status,SpdAvg,
2014-02-18, 00:00:04,VALID,1012.9,VALID,0,VALID,104,VALID,0,VALID,24.2183,VALID,50,VALID,0,
2014-02-18, 00:01:04,VALID,1012.87,VALID,0,VALID,104,VALID,0,VALID,24.2396,VALID,50,VALID,0,
2014-02-18, 00:02:04,VALID,1012.87,VALID,0,VALID,104,VALID,0,VALID,24.2396,VALID,50,VALID,0,
2014-02-18, 00:03:04,VALID,1012.87,VALID,0,VALID,104,VALID,0,VALID,24.2378,VALID,50,VALID,0,
2014-02-18, 00:04:04,VALID,1012.86,VALID,0,VALID,104,VALID,0,VALID,24.2183,VALID,50,VALID,0,
2014-02-18, 00:05:04,VALID,1012.86,VALID,0,VALID,104,VALID,0,VALID,24.2378,VALID,50,VALID,0,
2014-02-18, 00:06:04,VALID,1012.9,VALID,0,VALID,104,VALID,0,VALID,24.2396,VALID,50,VALID,0,
2014-02-18, 00:07:04,VALID,1012.9,VALID,0,VALID,104,VALID,0,VALID,24.2378,VALID,50,VALID,0,
2014-02-18, 00:08:04,VALID,1012.88,VALID,0,VALID,104,VALID,0,VALID,24.2786,VALID,50,VALID,0,
2014-02-18, 00:09:04,VALID,1012.86,VALID,0,VALID,104,VALID,0,VALID,24.2573,VALID,50,VALID,0,
2014-02-18, 00:10:04,VALID,1012.84,VALID,0,VALID,104,VALID,0,VALID,24.3176,VALID,50,VALID,0,
2014-02-18, 00:11:04,VALID,1012.81,VALID,0,VALID,104,VALID,0,VALID,24.3158,VALID,85,VALID,0,
2014-02-18, 00:12:04,VALID,1012.8,VALID,0,VALID,104,VALID,0,VALID,24.3761,VALID,85,VALID,0,
2014-02-18, 00:13:04,VALID,1012.8,VALID,0,VALID,104,VALID,0,VALID,24.3761,VALID,85,VALID,0,
2014-02-18, 00:14:04,VALID,1012.8,VALID,0,VALID,104,VALID,0,VALID,24.3956,VALID,84,VALID,0,
2014-02-18, 00:15:04,VALID,1012.82,VALID,0,VALID,104,VALID,0,VALID,24.3761,VALID,84,VALID,0,
2014-02-18, 00:16:04,VALID,1012.81,VALID,0,VALID,104,VALID,0,VALID,24.3742,VALID,84,VALID,0,
2014-02-18, 00:17:04,VALID,1012.79,VALID,0,VALID,104,VALID,0,VALID,24.3956,VALID,84,VALID,0,
2014-02-18, 00:18:04,VALID,1012.75,VALID,0,VALID,104,VALID,0,VALID,24.3937,VALID,82,VALID,0,
2014-02-18, 00:19:04,VALID,1012.74,VALID,0,VALID,104,VALID,0,VALID,24.3956,VALID,82,VALID,0,
2014-02-18, 00:20:04,VALID,1012.68,VALID,0,VALID,104,VALID,0,VALID,24.3956,VALID,82,VALID,0,
2014-02-18, 00:21:04,VALID,1012.66,VALID,0,VALID,104,VALID,0,VALID,24.3761,VALID,82,VALID,0,
2014-02-18, 00:22:04,VALID,1012.67,VALID,0,VALID,104,VALID,0,VALID,24.3761,VALID,83,VALID,0,
2014-02-18, 00:23:04,VALID,1012.64,VALID,0,VALID,104,VALID,0,VALID,24.3761,VALID,82,VALID,0,
2014-02-18, 00:24:04,VALID,1012.63,VALID,0,VALID,104,VALID,0,VALID,24.3761,VALID,82,VALID,0,
2014-02-18, 00:25:04,VALID,1012.6,VALID,0,VALID,104,VALID,0,VALID,24.3761,VALID,83,VALID,0,
2014-02-18, 00:26:04,VALID,1012.58,VALID,0,VALID,104,VALID,0,VALID,24.3761,VALID,82,VALID,0,
2014-02-18, 00:27:04,VALID,1012.56,VALID,0,VALID,104,VALID,0,VALID,24.3566,VALID,83,VALID,0,
2014-02-18, 00:28:04,VALID,1012.53,VALID,0,VALID,104,VALID,0,VALID,24.3371,VALID,83,VALID,0,
2014-02-18, 00:29:04,VALID,1012.53,VALID,0,VALID,104,VALID,0,VALID,24.3176,VALID,82,VALID,0,
2014-02-18, 00:30:04,VALID,1012.54,VALID,0,VALID,104,VALID,0,VALID,24.2981,VALID,83,VALID,0,
2014-02-18, 00:31:04,VALID,1012.53,VALID,0,VALID,104,VALID,0,VALID,24.2786,VALID,82,VALID,0,
2014-02-18, 00:32:04,VALID,1012.53,VALID,0,VALID,104,VALID,0,VALID,24.2591,VALID,82,VALID,0,
2014-02-18, 00:33:04,VALID,1012.49,VALID,0,VALID,104,VALID,0,VALID,24.2202,VALID,83,VALID,0,
2014-02-18, 00:34:04,VALID,1012.47,VALID,0,VALID,104,VALID,0,VALID,24.2202,VALID,82,VALID,0,
2014-02-18, 00:35:04,VALID,1012.44,VALID,0,VALID,104,VALID,0,VALID,24.2007,VALID,82,VALID,0,
2014-02-18, 00:36:04,VALID,1012.41,VALID,0,VALID,104,VALID,0,VALID,24.1812,VALID,83,VALID,0,
2014-02-18, 00:37:04,VALID,1012.44,VALID,0,VALID,104,VALID,0,VALID,24.1812,VALID,82,VALID,0,
2014-02-18, 00:38:04,VALID,1012.45,VALID,0,VALID,104,VALID,0,VALID,24.1227,VALID,82,VALID,0,
2014-02-18, 00:39:04,VALID,1012.45,VALID,0,VALID,104,VALID,0,VALID,24.0837,VALID,82,VALID,0,
2014-02-18, 00:40:04,VALID,1012.42,VALID,0,VALID,104,VALID,0,VALID,24.0448,VALID,82,VALID,0,
2014-02-18, 00:41:04,VALID,1012.41,VALID,0,VALID,104,VALID,0,VALID,24.0253,VALID,82,VALID,0,
2014-02-18, 00:42:04,VALID,1012.4,VALID,0,VALID,104,VALID,0,VALID,23.9863,VALID,82,VALID,0,
2014-02-18, 00:43:04,VALID,1012.43,VALID,0,VALID,104,VALID,0,VALID,23.9473,VALID,82,VALID,0,
2014-02-18, 00:44:04,VALID,1012.41,VALID,0,VALID,104,VALID,0,VALID,23.9473,VALID,83,VALID,0,
2014-02-18, 00:45:04,VALID,1012.41,VALID,0,VALID,104,VALID,0,VALID,23.9065,VALID,82,VALID,0,
2014-02-18, 00:46:04,VALID,1012.42,VALID,0,VALID,104,VALID,0,VALID,23.9084,VALID,83,VALID,0,
2014-02-18, 00:47:04,VALID,1012.41,VALID,0,VALID,104,VALID,0,VALID,23.8889,VALID,83,VALID,0,
2014-02-18, 00:48:04,VALID,1012.37,VALID,0,VALID,104,VALID,0,VALID,23.8889,VALID,82,VALID,0,
2014-02-18, 00:49:04,VALID,1012.38,VALID,0,VALID,104,VALID,0,VALID,23.8889,VALID,82,VALID,0,
2014-02-18, 00:50:04,VALID,1012.37,VALID,0,VALID,104,VALID,0,VALID,23.8889,VALID,82,VALID,0,
2014-02-18, 00:51:04,VALID,1012.38,VALID,0,VALID,104,VALID,0,VALID,23.8889,VALID,82,VALID,0,
2014-02-18, 00:52:04,VALID,1012.36,VALID,0,VALID,104,VALID,0,VALID,23.8694,VALID,82,VALID,0,
2014-02-18, 00:53:04,VALID,1012.33,VALID,0,VALID,104,VALID,0,VALID,23.8694,VALID,82,VALID,0,
2014-02-18, 00:54:04,VALID,1012.34,VALID,0,VALID,104,VALID,0,VALID,23.8889,VALID,84,VALID,0,
2014-02-18, 00:55:04,VALID,1012.34,VALID,0,VALID,104,VALID,0,VALID,23.8481,VALID,83,VALID,0,
2014-02-18, 00:56:04,VALID,1012.35,VALID,0,VALID,104,VALID,0.112112,VALID,23.8676,VALID,82,VALID,0,
2014-02-18, 00:57:04,VALID,1012.33,VALID,0,VALID,104,VALID,0,VALID,23.8499,VALID,82,VALID,0,
2014-02-18, 00:58:04,VALID,1012.33,VALID,0,VALID,104,VALID,0,VALID,23.8694,VALID,83,VALID,0,
2014-02-18, 00:59:04,VALID,1012.33,VALID,0,VALID,104,VALID,0,VALID,23.8499,VALID,83,VALID,0,
2014-02-18, 01:00:04,VALID,1012.32,VALID,0,VALID,104,VALID,0,VALID,23.8304,VALID,83,VALID,0,
2014-02-18, 01:01:04,VALID,1012.33,VALID,0,VALID,104,VALID,0,VALID,23.8304,VALID,83,VALID,0,
2014-02-18, 01:02:04,VALID,1012.35,VALID,0,VALID,104,VALID,0,VALID,23.8109,VALID,82,VALID,0,
2014-02-18, 01:03:04,VALID,1012.37,VALID,0,VALID,104,VALID,0,VALID,23.8109,VALID,83,VALID,0,
2014-02-18, 01:04:04,VALID,1012.38,VALID,0,VALID,104,VALID,0,VALID,23.7914,VALID,82,VALID,0,
2014-02-18, 01:05:04,VALID,1012.38,VALID,0,VALID,104,VALID,0,VALID,23.7914,VALID,83,VALID,0,
2014-02-18, 01:06:04,VALID,1012.35,VALID,0,VALID,104,VALID,0,VALID,23.7507,VALID,82,VALID,0,
2014-02-18, 01:07:04,VALID,1012.37,VALID,0,VALID,104,VALID,0,VALID,23.772,VALID,82,VALID,0,
2014-02-18, 01:08:04,VALID,1012.35,VALID,0,VALID,104,VALID,0,VALID,23.7507,VALID,82,VALID,0,
2014-02-18, 01:09:04,VALID,1012.36,VALID,0,VALID,104,VALID,0,VALID,23.7312,VALID,82,VALID,0,
2014-02-18, 01:10:04,VALID,1012.33,VALID,0,VALID,104,VALID,0,VALID,23.7507,VALID,83,VALID,0,
2014-02-18, 01:11:04,VALID,1012.32,VALID,0,VALID,104,VALID,0,VALID,23.7525,VALID,82,VALID,0,
2014-02-18, 01:12:04,VALID,1012.31,VALID,0,VALID,104,VALID,0,VALID,23.7525,VALID,82,VALID,0,
2014-02-18, 01:13:04,VALID,1012.29,VALID,0,VALID,104,VALID,0,VALID,23.7312,VALID,83,VALID,0,
2014-02-18, 01:14:04,VALID,1012.3,VALID,0,VALID,104,VALID,0,VALID,23.7525,VALID,83,VALID,0,
2014-02-18, 01:15:04,VALID,1012.28,VALID,0,VALID,104,VALID,0,VALID,23.7525,VALID,83,VALID,0,
2014-02-18, 01:16:04,VALID,1012.27,VALID,0,VALID,104,VALID,0,VALID,23.7525,VALID,82,VALID,0,
2014-02-18, 01:17:04,VALID,1012.23,VALID,0,VALID,104,VALID,0,VALID,23.772,VALID,82,VALID,0,
2014-02-18, 01:18:04,VALID,1012.19,VALID,0,VALID,104,VALID,0,VALID,23.772,VALID,82,VALID,0,
2014-02-18, 01:19:04,VALID,1012.14,VALID,0,VALID,104,VALID,0,VALID,23.7701,VALID,83,VALID,0,
2014-02-18, 01:20:04,VALID,1012.1,VALID,0,VALID,104,VALID,0,VALID,23.7701,VALID,82,VALID,0,
2014-02-18, 01:21:04,VALID,1012.09,VALID,0,VALID,104,VALID,0,VALID,23.7701,VALID,82,VALID,0,
2014-02-18, 01:22:04,VALID,1012.1,VALID,0,VALID,104,VALID,0,VALID,23.7914,VALID,83,VALID,0,
2014-02-18, 01:23:04,VALID,1012.07,VALID,0,VALID,104,VALID,0.112112,VALID,23.7701,VALID,83,VALID,0,
2014-02-18, 01:24:04,VALID,1012.04,VALID,0,VALID,104,VALID,0,VALID,23.7507,VALID,82,VALID,0,
2014-02-18, 01:25:04,VALID,1012.01,VALID,0,VALID,104,VALID,0,VALID,23.7525,VALID,83,VALID,0,
2014-02-18, 01:26:04,VALID,1011.99,VALID,0,VALID,104,VALID,0.112112,VALID,23.6922,VALID,83,VALID,0,
2014-02-18, 01:27:04,VALID,1011.97,VALID,0,VALID,104,VALID,0,VALID,23.7135,VALID,82,VALID,0,
2014-02-18, 01:28:04,VALID,1011.93,VALID,0,VALID,104,VALID,0.112112,VALID,23.694,VALID,83,VALID,0,
2014-02-18, 01:29:04,VALID,1011.93,VALID,0,VALID,104,VALID,0,VALID,23.6727,VALID,83,VALID,0,
2014-02-18, 01:30:04,VALID,1011.9,VALID,0,VALID,104,VALID,0,VALID,23.655,VALID,82,VALID,0,
2014-02-18, 01:31:04,VALID,1011.9,VALID,0,VALID,104,VALID,0,VALID,23.655,VALID,82,VALID,0,
2014-02-18, 01:32:04,VALID,1011.89,VALID,0,VALID,104,VALID,0,VALID,23.6356,VALID,82,VALID,0,
2014-02-18, 01:33:04,VALID,1011.88,VALID,0,VALID,104,VALID,0,VALID,23.6161,VALID,83,VALID,0,
2014-02-18, 01:34:04,VALID,1011.88,VALID,0,VALID,104,VALID,0,VALID,23.5966,VALID,82,VALID,0,
2014-02-18, 01:35:04,VALID,1011.86,VALID,0,VALID,104,VALID,0,VALID,23.5966,VALID,82,VALID,0,
2014-02-18, 01:36:04,VALID,1011.86,VALID,0,VALID,104,VALID,0,VALID,23.5771,VALID,83,VALID,0,
2014-02-18, 01:37:04,VALID,1011.87,VALID,0,VALID,104,VALID,0,VALID,23.5771,VALID,82,VALID,0,
2014-02-18, 01:38:04,VALID,1011.86,VALID,0,VALID,104,VALID,0,VALID,23.5771,VALID,82,VALID,0,
2014-02-18, 01:39:04,VALID,1011.87,VALID,0,VALID,104,VALID,0,VALID,23.5576,VALID,82,VALID,0,
2014-02-18, 01:40:04,VALID,1011.86,VALID,0,VALID,104,VALID,0,VALID,23.5381,VALID,82,VALID,0,
2014-02-18, 01:41:04,VALID,1011.86,VALID,0,VALID,104,VALID,0,VALID,23.5169,VALID,82,VALID,0,
2014-02-18, 01:42:04,VALID,1011.84,VALID,0,VALID,104,VALID,0,VALID,23.5186,VALID,82,VALID,0,
2014-02-18, 01:43:04,VALID,1011.82,VALID,0,VALID,104,VALID,0,VALID,23.5169,VALID,82,VALID,0,
2014-02-18, 01:44:04,VALID,1011.84,VALID,0,VALID,104,VALID,0,VALID,23.4974,VALID,83,VALID,0,
2014-02-18, 01:45:04,VALID,1011.83,VALID,0,VALID,104,VALID,0,VALID,23.4974,VALID,82,VALID,0,
2014-02-18, 01:46:04,VALID,1011.81,VALID,0,VALID,104,VALID,0,VALID,23.4974,VALID,82,VALID,0,
2014-02-18, 01:47:04,VALID,1011.83,VALID,0,VALID,104,VALID,0,VALID,23.5186,VALID,82,VALID,0,
2014-02-18, 01:48:04,VALID,1011.83,VALID,0,VALID,104,VALID,0,VALID,23.4974,VALID,83,VALID,0,
2014-02-18, 01:49:04,VALID,1011.86,VALID,0,VALID,104,VALID,0,VALID,23.4974,VALID,82,VALID,0,
2014-02-18, 01:50:04,VALID,1011.86,VALID,0,VALID,104,VALID,0,VALID,23.5169,VALID,82,VALID,0,
2014-02-18, 01:51:04,VALID,1011.84,VALID,0,VALID,104,VALID,0,VALID,23.5186,VALID,83,VALID,0,
2014-02-18, 01:52:04,VALID,1011.86,VALID,0,VALID,104,VALID,0,VALID,23.5558,VALID,82,VALID,0,
2014-02-18, 01:53:04,VALID,1011.84,VALID,0,VALID,104,VALID,0,VALID,23.5771,VALID,83,VALID,0,
2014-02-18, 01:54:04,VALID,1011.82,VALID,0,VALID,104,VALID,0,VALID,23.5558,VALID,82,VALID,0,
2014-02-18, 01:55:04,VALID,1011.86,VALID,0,VALID,104,VALID,0,VALID,23.5558,VALID,82,VALID,0,
2014-02-18, 01:56:04,VALID,1011.84,VALID,0,VALID,104,VALID,0,VALID,23.5771,VALID,82,VALID,0,
2014-02-18, 01:57:04,VALID,1011.79,VALID,0,VALID,104,VALID,0,VALID,23.5771,VALID,82,VALID,0,
2014-02-18, 01:58:04,VALID,1011.79,VALID,0,VALID,104,VALID,0,VALID,23.5966,VALID,82,VALID,0,
2014-02-18, 01:59:04,VALID,1011.78,VALID,0,VALID,104,VALID,0,VALID,23.5753,VALID,83,VALID,0,
2014-02-18, 02:00:04,VALID,1011.69,VALID,0,VALID,104,VALID,0,VALID,23.5966,VALID,83,VALID,0,
2014-02-18, 02:01:04,VALID,1011.69,VALID,0,VALID,104,VALID,0.112112,VALID,23.5753,VALID,83,VALID,0,
2014-02-18, 02:02:04,VALID,1011.7,VALID,0,VALID,104,VALID,0,VALID,23.5753,VALID,82,VALID,0,
2014-02-18, 02:03:04,VALID,1011.7,VALID,0,VALID,104,VALID,0,VALID,23.5753,VALID,83,VALID,0,
2014-02-18, 02:04:04,VALID,1011.63,VALID,0,VALID,104,VALID,0,VALID,23.5966,VALID,83,VALID,0,
2014-02-18, 02:05:04,VALID,1011.62,VALID,0,VALID,104,VALID,0,VALID,23.5753,VALID,83,VALID,0,
2014-02-18, 02:06:04,VALID,1011.61,VALID,0,VALID,104,VALID,0,VALID,23.5771,VALID,83,VALID,0,
2014-02-18, 02:07:04,VALID,1011.6,VALID,0,VALID,104,VALID,0,VALID,23.5558,VALID,83,VALID,0,
2014-02-18, 02:08:04,VALID,1011.6,VALID,0,VALID,104,VALID,0,VALID,23.5558,VALID,83,VALID,0,
2014-02-18, 02:09:04,VALID,1011.59,VALID,0,VALID,104,VALID,0,VALID,23.5363,VALID,82,VALID,0,
2014-02-18, 02:10:04,VALID,1011.56,VALID,0,VALID,104,VALID,0,VALID,23.5771,VALID,83,VALID,0,
2014-02-18, 02:11:04,VALID,1011.53,VALID,0,VALID,104,VALID,0,VALID,23.5771,VALID,82,VALID,0,
2014-02-18, 02:12:04,VALID,1011.52,VALID,0,VALID,104,VALID,0,VALID,23.5576,VALID,83,VALID,0,
2014-02-18, 02:13:04,VALID,1011.51,VALID,0,VALID,104,VALID,0,VALID,23.5363,VALID,83,VALID,0,
2014-02-18, 02:14:04,VALID,1011.51,VALID,0,VALID,104,VALID,0,VALID,23.5576,VALID,83,VALID,0,
2014-02-18, 02:15:04,VALID,1011.52,VALID,0,VALID,104,VALID,0,VALID,23.5381,VALID,83,VALID,0,
2014-02-18, 02:16:04,VALID,1011.55,VALID,0,VALID,104,VALID,0,VALID,23.4974,VALID,83,VALID,0,
2014-02-18, 02:17:04,VALID,1011.54,VALID,0,VALID,104,VALID,0,VALID,23.4992,VALID,82,VALID,0,
2014-02-18, 02:18:04,VALID,1011.55,VALID,0,VALID,104,VALID,0,VALID,23.4974,VALID,82,VALID,0,
2014-02-18, 02:19:04,VALID,1011.54,VALID,0,VALID,104,VALID,0.112112,VALID,23.4992,VALID,82,VALID,0,
2014-02-18, 02:20:04,VALID,1011.53,VALID,0,VALID,104,VALID,0,VALID,23.4992,VALID,82,VALID,0,
2014-02-18, 02:21:04,VALID,1011.51,VALID,0,VALID,104,VALID,0.112112,VALID,23.4992,VALID,82,VALID,0,
2014-02-18, 02:22:04,VALID,1011.49,VALID,0,VALID,104,VALID,0,VALID,23.5186,VALID,82,VALID,0,
2014-02-18, 02:23:04,VALID,1011.48,VALID,0,VALID,104,VALID,0,VALID,23.4992,VALID,83,VALID,0,
2014-02-18, 02:24:04,VALID,1011.46,VALID,0,VALID,104,VALID,0,VALID,23.4992,VALID,83,VALID,0,
2014-02-18, 02:25:04,VALID,1011.42,VALID,0,VALID,104,VALID,0,VALID,23.4797,VALID,82,VALID,0,
2014-02-18, 02:26:04,VALID,1011.43,VALID,0,VALID,104,VALID,0.112112,VALID,23.4584,VALID,82,VALID,0,
2014-02-18, 02:27:04,VALID,1011.44,VALID,0,VALID,104,VALID,0,VALID,23.4584,VALID,82,VALID,0,
2014-02-18, 02:28:04,VALID,1011.46,VALID,0,VALID,104,VALID,0,VALID,23.4602,VALID,83,VALID,0,
2014-02-18, 02:29:04,VALID,1011.49,VALID,0,VALID,104,VALID,0.112112,VALID,23.4602,VALID,82,VALID,0,
2014-02-18, 02:30:04,VALID,1011.49,VALID,0,VALID,104,VALID,0,VALID,23.4602,VALID,82,VALID,0,
2014-02-18, 02:31:04,VALID,1011.47,VALID,0,VALID,104,VALID,0.112112,VALID,23.4194,VALID,82,VALID,0,
2014-02-18, 02:32:04,VALID,1011.44,VALID,0,VALID,104,VALID,0.112112,VALID,23.4389,VALID,82,VALID,0,
2014-02-18, 02:33:04,VALID,1011.42,VALID,0,VALID,104,VALID,0.112112,VALID,23.4407,VALID,82,VALID,0,
2014-02-18, 02:34:04,VALID,1011.4,VALID,0,VALID,104,VALID,0.112112,VALID,23.4,VALID,83,VALID,0,
2014-02-18, 02:35:04,VALID,1011.41,VALID,0,VALID,104,VALID,0,VALID,23.4212,VALID,82,VALID,0,
2014-02-18, 02:36:04,VALID,1011.41,VALID,0,VALID,104,VALID,0,VALID,23.361,VALID,82,VALID,0,
2014-02-18, 02:37:04,VALID,1011.41,VALID,0,VALID,104,VALID,0,VALID,23.3415,VALID,83,VALID,0,
2014-02-18, 02:38:04,VALID,1011.39,VALID,0,VALID,104,VALID,0.112112,VALID,23.3043,VALID,82,VALID,0,
2014-02-18, 02:39:04,VALID,1011.4,VALID,0,VALID,104,VALID,0,VALID,23.3043,VALID,82,VALID,0,
2014-02-18, 02:40:04,VALID,1011.39,VALID,0,VALID,104,VALID,0,VALID,23.2831,VALID,82,VALID,0,
2014-02-18, 02:41:04,VALID,1011.4,VALID,0,VALID,104,VALID,0.112112,VALID,23.2848,VALID,82,VALID,0,
2014-02-18, 02:42:04,VALID,1011.4,VALID,0,VALID,104,VALID,0.112112,VALID,23.2654,VALID,82,VALID,0,
2014-02-18, 02:43:04,VALID,1011.4,VALID,0,VALID,104,VALID,0.112112,VALID,23.2654,VALID,82,VALID,0,
2014-02-18, 02:44:04,VALID,1011.4,VALID,0,VALID,104,VALID,0.112112,VALID,23.2441,VALID,82,VALID,0,
2014-02-18, 02:45:04,VALID,1011.38,VALID,0,VALID,104,VALID,0.112112,VALID,23.2246,VALID,82,VALID,0,
2014-02-18, 02:46:04,VALID,1011.41,VALID,0,VALID,104,VALID,0,VALID,23.2264,VALID,82,VALID,0,
2014-02-18, 02:47:04,VALID,1011.41,VALID,0,VALID,104,VALID,0,VALID,23.2264,VALID,82,VALID,0,
2014-02-18, 02:48:04,VALID,1011.36,VALID,0,VALID,104,VALID,0,VALID,23.1874,VALID,82,VALID,0,
2014-02-18, 02:49:04,VALID,1011.35,VALID,0,VALID,104,VALID,0,VALID,23.1874,VALID,82,VALID,0,
2014-02-18, 02:50:04,VALID,1011.35,VALID,0,VALID,104,VALID,0,VALID,23.1272,VALID,82,VALID,0,
2014-02-18, 02:51:04,VALID,1011.33,VALID,0,VALID,104,VALID,0,VALID,23.129,VALID,83,VALID,0,
2014-02-18, 02:52:04,VALID,1011.33,VALID,0,VALID,104,VALID,0,VALID,23.0883,VALID,82,VALID,0,
2014-02-18, 02:53:04,VALID,1011.31,VALID,0,VALID,104,VALID,0,VALID,23.09,VALID,83,VALID,0,
2014-02-18, 02:54:04,VALID,1011.33,VALID,0,VALID,104,VALID,0.112112,VALID,23.09,VALID,83,VALID,0,
2014-02-18, 02:55:04,VALID,1011.27,VALID,0,VALID,104,VALID,0.112112,VALID,23.09,VALID,82,VALID,0,
2014-02-18, 02:56:04,VALID,1011.26,VALID,0,VALID,104,VALID,0,VALID,23.0705,VALID,82,VALID,0,
2014-02-18, 02:57:04,VALID,1011.22,VALID,0,VALID,104,VALID,0.112112,VALID,23.0705,VALID,82,VALID,0,
2014-02-18, 02:58:04,VALID,1011.19,VALID,0,VALID,104,VALID,0,VALID,23.0705,VALID,83,VALID,0,
2014-02-18, 02:59:04,VALID,1011.16,VALID,0,VALID,104,VALID,0.112112,VALID,23.0705,VALID,83,VALID,0,
2014-02-18, 03:00:04,VALID,1011.16,VALID,0,VALID,104,VALID,0,VALID,23.0298,VALID,82,VALID,0,
2014-02-18, 03:01:04,VALID,1011.17,VALID,0,VALID,104,VALID,0,VALID,23.0316,VALID,83,VALID,0,
2014-02-18, 03:02:04,VALID,1011.15,VALID,0,VALID,104,VALID,0,VALID,23.0298,VALID,83,VALID,0,
2014-02-18, 03:03:04,VALID,1011.1,VALID,0,VALID,104,VALID,0,VALID,23.0511,VALID,83,VALID,0,
2014-02-18, 03:04:04,VALID,1011.09,VALID,0,VALID,104,VALID,0,VALID,23.0511,VALID,82,VALID,0,
2014-02-18, 03:05:04,VALID,1011.06,VALID,0,VALID,104,VALID,0,VALID,23.0705,VALID,83,VALID,0,
2014-02-18, 03:06:04,VALID,1011.03,VALID,0,VALID,104,VALID,0,VALID,23.0528,VALID,82,VALID,0,
2014-02-18, 03:07:04,VALID,1011.03,VALID,0,VALID,104,VALID,0.112112,VALID,22.9714,VALID,82,VALID,0,
2014-02-18, 03:08:04,VALID,1011.05,VALID,0,VALID,104,VALID,0.112112,VALID,22.9536,VALID,82,VALID,0,
2014-02-18, 03:09:04,VALID,1011.05,VALID,0,VALID,104,VALID,0,VALID,22.9342,VALID,82,VALID,0,
2014-02-18, 03:10:04,VALID,1011.05,VALID,0,VALID,104,VALID,0.112112,VALID,22.8935,VALID,82,VALID,0,
2014-02-18, 03:11:04,VALID,1011.03,VALID,0,VALID,104,VALID,0.112112,VALID,22.8952,VALID,83,VALID,0,
2014-02-18, 03:12:04,VALID,1011.04,VALID,0,VALID,104,VALID,0,VALID,22.8562,VALID,83,VALID,0,
2014-02-18, 03:13:04,VALID,1011.01,VALID,0,VALID,104,VALID,0,VALID,22.8562,VALID,82,VALID,0,
2014-02-18, 03:14:04,VALID,1010.99,VALID,0,VALID,104,VALID,0.112112,VALID,22.8757,VALID,82,VALID,0,
2014-02-18, 03:15:04,VALID,1010.98,VALID,0,VALID,104,VALID,0,VALID,22.8952,VALID,82,VALID,0,
2014-02-18, 03:16:04,VALID,1010.96,VALID,0,VALID,104,VALID,0,VALID,22.874,VALID,82,VALID,0,
2014-02-18, 03:17:04,VALID,1010.91,VALID,0,VALID,104,VALID,0,VALID,22.8952,VALID,82,VALID,0,
2014-02-18, 03:18:04,VALID,1010.94,VALID,0,VALID,104,VALID,0,VALID,22.874,VALID,82,VALID,0,
2014-02-18, 03:19:04,VALID,1010.89,VALID,0,VALID,104,VALID,0,VALID,22.8562,VALID,83,VALID,0,
2014-02-18, 03:20:04,VALID,1010.91,VALID,0,VALID,104,VALID,0,VALID,22.8368,VALID,82,VALID,0,
2014-02-18, 03:21:04,VALID,1010.9,VALID,0,VALID,104,VALID,0,VALID,22.835,VALID,82,VALID,0,
2014-02-18, 03:22:04,VALID,1010.89,VALID,0,VALID,104,VALID,0,VALID,22.8562,VALID,82,VALID,0,
2014-02-18, 03:23:04,VALID,1010.89,VALID,0,VALID,104,VALID,0,VALID,22.8155,VALID,82,VALID,0,
2014-02-18, 03:24:04,VALID,1010.89,VALID,0,VALID,104,VALID,0,VALID,22.8173,VALID,82,VALID,0,
2014-02-18, 03:25:04,VALID,1010.89,VALID,0,VALID,104,VALID,0,VALID,22.8368,VALID,82,VALID,0,
2014-02-18, 03:26:04,VALID,1010.92,VALID,0,VALID,104,VALID,0,VALID,22.8155,VALID,82,VALID,0,
2014-02-18, 03:27:04,VALID,1010.92,VALID,0,VALID,104,VALID,0,VALID,22.8562,VALID,82,VALID,0,
2014-02-18, 03:28:04,VALID,1010.97,VALID,0,VALID,104,VALID,0,VALID,22.8757,VALID,82,VALID,0,
2014-02-18, 03:29:04,VALID,1010.96,VALID,0,VALID,104,VALID,0,VALID,22.8952,VALID,82,VALID,0,
2014-02-18, 03:30:04,VALID,1010.94,VALID,0,VALID,104,VALID,0,VALID,22.874,VALID,82,VALID,0,
2014-02-18, 03:31:04,VALID,1010.95,VALID,0,VALID,104,VALID,0,VALID,22.8757,VALID,82,VALID,0,
2014-02-18, 03:32:04,VALID,1010.95,VALID,0,VALID,104,VALID,0.112112,VALID,22.874,VALID,82,VALID,0,
2014-02-18, 03:33:04,VALID,1010.97,VALID,0,VALID,104,VALID,0,VALID,22.8952,VALID,83,VALID,0,
2014-02-18, 03:34:04,VALID,1010.98,VALID,0,VALID,104,VALID,0,VALID,22.8757,VALID,82,VALID,0,
2014-02-18, 03:35:04,VALID,1010.99,VALID,0,VALID,104,VALID,0,VALID,22.8952,VALID,82,VALID,0,
2014-02-18, 03:36:04,VALID,1010.98,VALID,0,VALID,104,VALID,0,VALID,22.8757,VALID,82,VALID,0,
2014-02-18, 03:37:04,VALID,1010.98,VALID,0,VALID,104,VALID,0.112112,VALID,22.8952,VALID,83,VALID,0,
2014-02-18, 03:38:04,VALID,1011,VALID,0,VALID,104,VALID,0,VALID,22.8757,VALID,82,VALID,0,
2014-02-18, 03:39:04,VALID,1011,VALID,0,VALID,104,VALID,0,VALID,22.8757,VALID,82,VALID,0,
2014-02-18, 03:40:04,VALID,1010.96,VALID,0,VALID,104,VALID,0,VALID,22.8757,VALID,83,VALID,0,
2014-02-18, 03:41:04,VALID,1010.92,VALID,0,VALID,104,VALID,0,VALID,22.8562,VALID,82,VALID,0,
2014-02-18, 03:42:04,VALID,1010.93,VALID,0,VALID,104,VALID,0,VALID,22.8155,VALID,83,VALID,0,
2014-02-18, 03:43:04,VALID,1010.92,VALID,0,VALID,104,VALID,0,VALID,22.8368,VALID,83,VALID,0,
2014-02-18, 03:44:04,VALID,1010.91,VALID,0,VALID,104,VALID,0,VALID,22.8368,VALID,82,VALID,0,
2014-02-18, 03:45:04,VALID,1010.92,VALID,0,VALID,104,VALID,0.112112,VALID,22.7961,VALID,82,VALID,0,
2014-02-18, 03:46:04,VALID,1010.91,VALID,0,VALID,104,VALID,0,VALID,22.7783,VALID,82,VALID,0,
2014-02-18, 03:47:04,VALID,1010.88,VALID,0,VALID,104,VALID,0,VALID,22.7588,VALID,82,VALID,0,
2014-02-18, 03:48:04,VALID,1010.86,VALID,0,VALID,104,VALID,0,VALID,22.7588,VALID,83,VALID,0,
2014-02-18, 03:49:04,VALID,1010.84,VALID,0,VALID,104,VALID,0,VALID,22.7394,VALID,82,VALID,0,
2014-02-18, 03:50:04,VALID,1010.85,VALID,0,VALID,104,VALID,0,VALID,22.7199,VALID,82,VALID,0,
2014-02-18, 03:51:04,VALID,1010.84,VALID,0,VALID,104,VALID,0,VALID,22.6809,VALID,82,VALID,0,
2014-02-18, 03:52:04,VALID,1010.87,VALID,0,VALID,104,VALID,0,VALID,22.7199,VALID,82,VALID,0,
2014-02-18, 03:53:04,VALID,1010.9,VALID,0,VALID,104,VALID,0,VALID,22.7394,VALID,82,VALID,0,
2014-02-18, 03:54:04,VALID,1010.9,VALID,0,VALID,104,VALID,0,VALID,22.7571,VALID,82,VALID,0,
2014-02-18, 03:55:04,VALID,1010.88,VALID,0,VALID,104,VALID,0,VALID,22.7783,VALID,82,VALID,0,
2014-02-18, 03:56:04,VALID,1010.88,VALID,0,VALID,104,VALID,0,VALID,22.7783,VALID,83,VALID,0,
2014-02-18, 03:57:04,VALID,1010.85,VALID,0,VALID,104,VALID,0,VALID,22.7571,VALID,83,VALID,0,
2014-02-18, 03:58:04,VALID,1010.86,VALID,0,VALID,104,VALID,0,VALID,22.7588,VALID,83,VALID,0,
2014-02-18, 03:59:04,VALID,1010.86,VALID,0,VALID,104,VALID,0,VALID,22.7004,VALID,82,VALID,0,
2014-02-18, 04:00:04,VALID,1010.9,VALID,0,VALID,104,VALID,0,VALID,22.642,VALID,82,VALID,0,
2014-02-18, 04:01:04,VALID,1010.89,VALID,0,VALID,104,VALID,0,VALID,22.603,VALID,83,VALID,0,
2014-02-18, 04:02:04,VALID,1010.91,VALID,0,VALID,104,VALID,0,VALID,22.564,VALID,82,VALID,0,
2014-02-18, 04:03:04,VALID,1010.88,VALID,0,VALID,104,VALID,0,VALID,22.5446,VALID,82,VALID,0,
2014-02-18, 04:04:04,VALID,1010.88,VALID,0,VALID,104,VALID,0,VALID,22.5251,VALID,82,VALID,0,
2014-02-18, 04:05:04,VALID,1010.92,VALID,0,VALID,104,VALID,0,VALID,22.5056,VALID,82,VALID,0,
2014-02-18, 04:06:04,VALID,1010.93,VALID,0,VALID,104,VALID,0,VALID,22.4455,VALID,83,VALID,0,
2014-02-18, 04:07:04,VALID,1010.93,VALID,0,VALID,104,VALID,0,VALID,22.4667,VALID,83,VALID,0,
2014-02-18, 04:08:04,VALID,1010.93,VALID,0,VALID,104,VALID,0,VALID,22.4861,VALID,82,VALID,0,
2014-02-18, 04:09:04,VALID,1010.93,VALID,0,VALID,104,VALID,0,VALID,22.4861,VALID,82,VALID,0,
2014-02-18, 04:10:04,VALID,1010.94,VALID,0,VALID,104,VALID,0,VALID,22.5056,VALID,82,VALID,0,